Regional Weather Roundup
Issued by NWS Bismarck, ND

Home | Current Version | Previous Version | Text Only | Print | Product List | Glossary On
Versions: 1 2 3 4 5 6 7 8 9 10 11 12 13 14 15 16 17 18 19 20 21 22 23 24 25 26 27 28 29 30 31 32 33 34 35 36 37 38 39 40 41 42 43 44 45 46 47 48 49 50
000
ASUS43 KBIS 262310
RWRBIS

NWR BROADCAST TEXT
NATIONAL WEATHER SERVICE BISMARCK ND
600 PM CDT THU MAR 26 2015

NOTE: "FAIR" INDICATES FEW OR NO CLOUDS BELOW 12,000 FEET WITH NO
SIGNIFICANT WEATHER AND/OR OBSTRUCTIONS TO VISIBILITY.


CITY           SKY/WX    TMP DP  RH WIND       PRES   REMARKS
WILLISTON      PTSUNNY   45  25  45 CALM      30.16S
MINOT          SUNNY     38  19  46 CALM      30.21F
MINOT AFB      SUNNY     38  22  53 SE3       30.21S
BISMARCK       CLOUDY    38  20  48 NE5       30.23R
DICKINSON      CLOUDY    37  29  72 SE6       30.15S
GARRISON         N/A     38  21  50 SW3       30.20F
HETTINGER ARPT PTSUNNY   38  29  70 SE8       30.16S
JAMESTOWN      SUNNY     34  12  40 NE13G21   30.23R
BEACH          FAIR      45  30  57 SE6       30.13S
CARRINGTON     FAIR      32  12  43 NE10      30.25S
CROSBY         FAIR      41  25  52 SE6       30.18F
HARVEY         FAIR      34  16  47 NE8       30.25R
HAZEN          MOCLDY    39  19  45 NE3       30.22S
LINTON         MOCLDY    37  19  48 N13       30.22R
MANDAN         CLOUDY    37  21  52 E3        30.22S
OAKES            N/A     34  14  44 N17G24    30.23R
RUGBY          FAIR      32  18  55 SE3       30.25S
WATFORD CITY   MOCLDY    41  27  56 SE7       30.15R
$$

CITY           SKY/WX    TMP DP  RH WIND       PRES   REMARKS
GRAND FORKS    PTSUNNY   30  15  53 N18G25    30.28S WCI  18
GRAND FORKS AF PTSUNNY   30  14  52 N14G21    30.28R WCI  19
DEVILS LAKE    CLOUDY    30  18  59 NE13      30.26R
FARGO          SUNNY     34  10  37 N18G29    30.25R
CAVALIER       MIX PCPN  28  19  69 N9        30.31R WCI  20
GWINNER        CLEAR     36  12  38 N20         N/A
ROLLA          MOCLDY    32  18  55 NE8       30.24F
$$

CITY           SKY/WX    TMP DP  RH WIND       PRES   REMARKS
ABERDEEN       SUNNY     39  14  36 NE13      30.23R
MOBRIDGE       CLOUDY    41  22  46 N5        30.18R
BUFFALO          N/A     45  31  58 E12       30.05F
RAPID CITY     CLOUDY    47  29  49 NE14      30.12R
GLASGOW        CLOUDY    50  32  50 E14       30.06F
SIDNEY         CLOUDY    45  34  65 E6        30.16R
WOLF POINT     CLOUDY    48  35  60 E10       30.11S
GLENDIVE       CLOUDY    48  28  46 E6        30.12S
MILES CITY     CLOUDY    58  31  35 N10       30.05F
BAKER          CLOUDY    48  28  46 E5        30.10F
$$

CITY           SKY/WX    TMP DP  RH WIND       PRES   REMARKS
BILLINGS       CLOUDY    62  34  35 NW17      30.08R
GREAT FALLS    PTSUNNY   66  35  31 W24G31    30.07R
REGINA         PTSUNNY   37  28  70 SE14G21   30.15F
ESTEVAN        CLOUDY    37  25  60 E8        30.19F
$$




USA.gov is the U.S. government's official web portal to all federal, state and local government web resources and services.